Weather History for Springfield, CO

Change the Weather History Date:

Wednesday, March 5, 2014

  Actual Average Record
Temperature  
Mean Temperature 42 °F -  
Max Temperature 54 °F 55 °F 78 °F (2009)
Min Temperature 29 °F 25 °F 10 °F (2013)
Degree Days  
Heating Degree Days 23 25  
Month to date heating degree days 192 129  
Since 1 July heating degree days 4189 4135  
Cooling Degree Days 0 0  
Month to date cooling degree days 0 0  
Year to date cooling degree days 0 0  
Moisture  
Dew Point 29 °F    
Average Humidity 62    
Maximum Humidity 89    
Minimum Humidity 35    
Precipitation  
Precipitation 0.00 in 0.04 in 0.02 in (2004)
Month to date precipitation 0.07 0.12  
Year to date precipitation 0.40 0.93  
Sea Level Pressure  
Sea Level Pressure 30.06 in    
Wind  
Wind Speed 15 mph (North)    
Max Wind Speed 36 mph    
Max Gust Speed 41 mph    
T = Trace of Precipitation, MM = Missing Value Source: NWS Daily Summary

Daily Weather History Graph

Daily Weather History Graph

Search for Another Location

Airport:

Trip Planner

Search our weather history database for the weather conditions in past years. The results will help you decide how hot, cold, wet, or windy it might be!

Date:

Astronomy

Mar. 05, 2014 Rise Set
Actual Time 6:15 AM MST 5:48 PM MST
Civil Twilight 5:49 AM MST 6:14 PM MST
Nautical Twilight 5:19 AM MST 6:44 PM MST
Astronomical Twilight 4:49 AM MST 7:14 PM MST
Moon 8:49 AM MST (3/5) 10:52 PM MST (3/5)
Length of Visible Light 12h 24m
Length of Day
11h 32m
Waxing Crescent, 24% of the Moon is Illuminated
Mar 5
Waxing Crescent
Mar 8
First Quarter
Mar 16
Full
Mar 23
Last Quarter
Mar 30
New

Hourly Weather History & Observations

Time (MST) Temp. Windchill Dew Point Humidity Pressure Visibility Wind Dir Wind Speed Gust Speed Precip Events Conditions
12:56 AM 37.9 °F 26.1 °F 32.0 °F 79% 29.79 in - North 27.6 mph 34.5 mph N/A   Unknown
1:56 AM 37.0 °F 25.1 °F 30.9 °F 79% 29.84 in - North 26.5 mph 36.8 mph N/A   Unknown
2:56 AM 36.0 °F 24.7 °F 30.0 °F 79% 29.90 in - NNW 21.9 mph - N/A   Unknown
3:56 AM 36.0 °F 24.4 °F 30.0 °F 79% 29.92 in - North 23.0 mph 35.7 mph N/A   Unknown
4:56 AM 37.0 °F 24.7 °F 32.0 °F 82% 29.95 in - North 28.8 mph 35.7 mph N/A   Unknown
5:56 AM 36.0 °F 25.0 °F 30.9 °F 82% 30.01 in - North 20.7 mph 31.1 mph N/A   Unknown
6:56 AM 36.0 °F 26.0 °F 32.0 °F 86% 30.04 in - North 17.3 mph - N/A   Unknown
7:56 AM 37.0 °F 27.4 °F 32.0 °F 82% 30.08 in - North 17.3 mph - N/A   Unknown
8:56 AM 37.9 °F 28.2 °F 33.1 °F 83% 30.11 in - North 18.4 mph - N/A   Unknown
9:56 AM 39.0 °F 31.8 °F 32.0 °F 76% 30.12 in - NNE 11.5 mph - N/A   Unknown
10:56 AM 46.0 °F 39.0 °F 30.9 °F 56% 30.10 in - NNE 17.3 mph - N/A   Unknown
11:56 AM 48.9 °F - 30.0 °F 48% 30.08 in - North 10.4 mph 19.6 mph N/A   Unknown
12:56 PM 51.1 °F - 28.9 °F 43% 30.07 in - North 15.0 mph - N/A   Unknown
1:56 PM 53.1 °F - 27.0 °F 37% 30.06 in - North 13.8 mph - N/A   Unknown
2:56 PM 53.1 °F - 26.1 °F 35% 30.06 in - North 16.1 mph 23.0 mph N/A   Unknown
3:56 PM 53.1 °F - 26.1 °F 35% 30.06 in - North 4.6 mph - N/A   Unknown
4:56 PM 51.1 °F - 25.0 °F 36% 30.08 in - NNE 5.8 mph - N/A   Unknown
5:56 PM 45.0 °F 41.8 °F 25.0 °F 46% 30.10 in - SE 5.8 mph - N/A   Unknown
6:56 PM 36.0 °F 30.3 °F 27.0 °F 70% 30.15 in - SSE 6.9 mph - N/A   Unknown
7:56 PM 33.1 °F 30.0 °F 25.0 °F 72% 30.17 in - SSW 3.5 mph - N/A   Unknown
8:56 PM 30.9 °F 26.2 °F 25.0 °F 79% 30.18 in - SW 4.6 mph - N/A   Unknown
9:56 PM 30.0 °F 23.2 °F 25.0 °F 82% 30.18 in - SW 6.9 mph - N/A   Unknown
10:56 PM 30.0 °F 20.0 °F 25.0 °F 82% 30.15 in - SW 12.7 mph - N/A   Unknown
11:56 PM 30.0 °F 20.5 °F 26.1 °F 85% 30.13 in - SW 11.5 mph - N/A   Unknown